Location: Carnetin
(48.9010°N, 2.7059°E)
Time: 19:26:02
(UTC+00:00)

Cosmos 2173 Rocket - Pass Details

Date: 24 October 2021
Orbit: 945 x 1000 km, 83.0° (Epoch: 07 December)

Event Time Altitude Azimuth Distance (km) Brightness Sun altitude
Rises 18:31:23 0° 162° (SSE) 3,637 6.8 -18.5°
Reaches altitude 10° 18:34:00 10° 155° (SSE) 2,703 6.0 -19.0°
Maximum altitude 18:39:41 40° 88° (E) 1,411 4.3 -19.9°
Drops below altitude 10° 18:45:29 10° 22° (NNE) 2,756 6.2 -20.9°
Sets 18:48:10 0° 15° (NNE) 3,716 7.0 -21.3°
